Other Public Products
Issued by NWS Grand Forks, ND

Home | Current Version | Previous Version | Graphics & Text | Print | Product List | Glossary On
Versions: 1 2 3 4 5 6 7 8 9 10 11 12 13 14 15 16 17 18 19 20 21 22 23 24 25 26 27 28 29 30 31 32 33 34 35 36 37 38 39 40 41 42 43 44 45 46 47 48 49 50
000
FPUS83 KFGF 211531
OPUFGF
PRAIRIE TO PINES WEATHER ROUNDUP
NATIONAL WEATHER SERVICE EASTERN NORTH DAKOTA/GRAND FORKS ND
1000 AM CDT THU AUG 21 2014

 **SATELLITE DATA USED TO AUGMENT SKY COVER AT AUTOMATED STATIONS**
 *****  WEATHER ACROSS EASTERN NORTH DAKOTA  *****

CITY           SKY/WX    TMP DP  RH WIND       PRES   REMARKS
GRAND FORKS    CLOUDY    72  66  83 E7        29.77R
GRAND FORKS AF CLOUDY    70  69  96 E6        29.78R
GRAND CITY NWS   N/A     55 N/A N/A SE7         N/A
BUXTON           N/A     71  71  98 E8          N/A
DEVILS LAKE    CLOUDY    70  64  83 E7        29.77S
FARGO          CLOUDY    73  67  81 SE6       29.76R
WAHPETON ARPT  CLOUDY    72  64  78 S7        29.76S
$$

 *****  WEATHER ACROSS CENTRAL AND WESTERN NORTH DAKOTA  *****

CITY           SKY/WX    TMP DP  RH WIND       PRES   REMARKS
JAMESTOWN      CLOUDY    72  67  84 NW6       29.77S
BISMARCK       CLOUDY    68  64  87 NW7       29.85R
MINOT          CLOUDY    66  63  90 NW9       29.83S FOG
MINOT AFB      CLOUDY    68  66  94 NW9       29.84R
GARRISON         N/A     68  65  90 NW10      29.85R
WILLISTON      CLOUDY    62  59  90 NW13      29.93R
DICKINSON      PTSUNNY   65  62  90 NW13      29.91R FOG
HETTINGER      MOSUNNY   69  61  75 NW9       29.92S
$$

 *****  OTHER OBSERVATIONS NORTHEAST NORTH DAKOTA  *****

CITY           SKY/WX    TMP DP  RH WIND       PRES   REMARKS
WALHALLA         N/A     68  68 100 SE5       29.80F
LANGDON        CLOUDY    66  66 100 E7        29.80S FOG
CAVALIER       CLOUDY    68  64  88 CALM      29.80R
GRAFTON          N/A     72  66  83 SE7       29.77S
CANDO          PTSUNNY   72  66  83 E5        29.80S
FORT TOTTEN      N/A     70  68  93 CALM      29.95S
ROLLA          PTSUNNY   64  64 100 N7        29.83S
RUGBY          FAIR      66  66 100 N9        29.81R
 ***** THE ABOVE OBSERVATIONS ARE NON NWS ARE NOT QUALITY
        CONTROLLED AND MAY MIS-REPORT RAIN FOR SNOW...
$$

 *****  OTHER OBSERVATIONS SOUTHEAST NORTH DAKOTA *****

CITY           SKY/WX    TMP DP  RH WIND       PRES   REMARKS
COOPERSTOWN    NOT AVBL
VALLEY CITY    CLOUDY    72  72 100 E6        29.77R
OAKES          NOT AVBL
GWINNER        CLOUDY    73  72  94 W9        29.77R
BUFFALO          N/A     70  67  91 E5          N/A
WYNDMERE       NOT AVBL
 ***** THE ABOVE OBSERVATIONS ARE NON NWS ARE NOT QUALITY
       CONTROLLED AND MAY MIS-REPORT RAIN FOR SNOW...
$$

  *****  WEATHER ACROSS NORTHERN MINNESOTA  *****

CITY           SKY/WX    TMP DP  RH WIND       PRES   REMARKS
FLAG ISLAND    CLOUDY    64  61  88 SE8       29.85S
WARROAD        CLOUDY    64  61  88 SE8       29.86R
ROSEAU         CLOUDY    68  61  77 SE8       29.84R
HALLOCK          N/A     72  66  83 SE7       29.78R
THF RVR FALLS  CLOUDY    66  63  88 E8        29.82R
HALSTAD          N/A     72  66  81 CALM        N/A
FOSSTON        CLOUDY    72  68  88 SE7       29.82S
BAUDETTE       CLOUDY    63  60  90 E12       29.85F
WASKISH        PTSUNNY   64  63  94 CALM      29.85R
CROOKSTON      CLOUDY    72  66  83 SE8       29.79R
$$
  *****  WEATHER ACROSS CENTRAL AND WEST MINNESOTA  *****

CITY           SKY/WX    TMP DP  RH WIND       PRES   REMARKS
BEMIDJI        CLOUDY    65  62  90 E7        29.85S
PARK RAPIDS    PTSUNNY   70  65  84 E5        29.81F
WADENA         CLOUDY    68  64  88 E6        29.80S
DETROIT LAKES  CLOUDY    70  64  83 SE8       29.81S
MOORHEAD       CLOUDY    73  72  94 SE5       29.77S
FERGUS FALLS   CLOUDY    73  64  73 SE7       29.76R
ELBOW LAKE     CLOUDY    72  68  88 SE9       29.76R
MORRIS MN      SUNNY     73  72  94 S9        29.74S
STAPLES        PTSUNNY   72  64  78 E6        29.80S
WHEATON        CLOUDY    70  66  88 S7        29.76S
$$
  *****  WEATHER ELSEWHERE ACROSS MINNESOTA  *****

CITY           SKY/WX    TMP DP  RH WIND       PRES   REMARKS
DULUTH         CLOUDY    62  60  93 E15       29.86F FOG
INTRNTL FALLS  CLOUDY    63  59  87 SE13      29.89F
ELY            CLOUDY    66  57  72 SE8       29.92S
CLOQUET        CLOUDY    63  61  94 E12       29.86S
BRAINERD       CLOUDY    68  66  93 NE5       29.81R
HIBBING        CLOUDY    65  59  81 E8        29.88S
ALEXANDRIA     CLOUDY    71  67  87 SE10      29.78S
SAINT CLOUD    CLOUDY    73  68  84 E10       29.77S
MINNEAPOLIS    MOSUNNY   75  70  84 S8        29.77F
$$

  *****  WEATHER ACROSS SOUTH DAKOTA  *****

CITY           SKY/WX    TMP DP  RH WIND       PRES   REMARKS
SIOUX FALLS    PTSUNNY   79  69  71 SW7       29.76F
BROOKINGS      NOT AVBL
WATERTOWN      SUNNY     74  69  85 SW8       29.77S
HURON          SUNNY     76  67  73 CALM      29.77S
SISSETON         N/A     74  70  87 S6        29.73S
ABERDEEN       PTSUNNY   71  66  84 W12       29.77S
MITCHELL       CLOUDY    74  69  85 W5        29.80R
PIERRE         MOSUNNY   72  65  78 N9        29.84R
MOBRIDGE       MOSUNNY   69  66  90 NW9       29.82S
RAPID CITY     PTSUNNY   68  62  81 CALM      29.97R
$$

  *****  SOME WEATHER IN NEARBY STATES *****

CITY           SKY/WX    TMP DP  RH WIND       PRES   REMARKS
GLASGOW MT     CLOUDY    63  60  90 N6        29.96R
GREAT FALLS MT CLOUDY    54  53  97 NW10      30.07S
CHEYENNE WY    SUNNY     69  45  41 W14G20    30.14R
SCOTTSBLUFF NE SUNNY     69  52  54 W9        30.02R
OMAHA NE       CLOUDY    79  69  71 E6        29.82R
DES MOINES IA  CLOUDY    82  70  66 W9        29.87R THUNDER
DAVENPORT IA   CLOUDY    76  70  82 E7        29.93S
CHICAGO IL     CLOUDY    72  68  87 S9        29.93F
EAU CLAIRE WI  LGT RAIN  68  68 100 E8        29.84R
LA CROSSE WI   RAIN      71  68  90 S13       29.90S FOG
$$

  *****  SOME NATIONAL WEATHER *****

CITY           SKY/WX    TMP DP  RH WIND       PRES   REMARKS
LA GUARDIA NY  PTSUNNY   78  61  55 S8        30.05F
RALEIGH NC     PTSUNNY   84  71  65 N6        30.09R
ATLANTA GA     PTSUNNY   80  70  71 W7        30.17R
NEW ORLEANS LA PTSUNNY   88  77  69 CALM      30.14R HX 100
OKLAHOMA CITY  SUNNY     86  70  58 S18       29.98S HX  90
ALBUQUERQUE NM MOSUNNY   72  41  32 N6        30.18R
SALT LAKE CITY CLOUDY    70  48  45 S6        30.07R
LOS ANGELES CA PTSUNNY   68  61  78 SW5       29.95R
BOISE ID       MOSUNNY   65  42  43 CALM      30.00R
SEATTLE WA     PTSUNNY   55  51  86 S5        30.06R
$$

*** WEATHER ACROSS MANITOBA...SASKATCHEWAN AND ONTARIO ***
                ***ONTARIO***

CITY           SKY/WX    TMP DP  RH WIND       PRES   REMARKS
GERALDTON      CLOUDY   N/A N/A N/A SE5         N/A  FOG
THUNDER BAY    PTSUNNY   66  61  82 E7        29.97S
SIOUX LOOKOUT  PTSUNNY   68  61  77 S5        29.94S
TORONTO        PTSUNNY   75  64  69 SW5       29.96S
BIG TROUT LK   SUNNY     72  61  68 S12       29.96S
PICKLE LAKE    CLOUDY    64  59  82 S6        29.99S
DRYDEN         SUNNY     66  59  77 SE12      29.93
KENORA         CLOUDY    66  61  82 SE8       29.89F
$$
                *** MANITOBA***

CITY           SKY/WX    TMP DP  RH WIND       PRES   REMARKS
BRANDON        CLOUDY    64  64 100 E6        29.84S
DAUPHIN        CLOUDY    66  64  94 N8        29.83R
ISLAND LAKE    PTSUNNY   73  63  68 SE7       29.84S
PILOT MOUND      N/A     68  64  88 NE5         N/A
THE PAS        CLOUDY    61  55  82 N14G21    29.89R
THOMPSON       LGT RAIN  54  54 100 N9        29.81
WINNIPEG       LGT RAIN  70  64  83 S7        29.82R
LYNN LAKE      CLOUDY    54  52  94 MISG      29.94R
CHURCHILL      PTSUNNY   48  46  93 NW14G21   29.82R
GILLAM         CLOUDY    73  64  73 SE3       29.77F
$$
                ***SASKATCHEWAN***

CITY           SKY/WX    TMP DP  RH WIND       PRES   REMARKS
ESTEVAN        CLOUDY    64  63  94 NW12      29.89  FOG
KINDERSLEY     CLOUDY    55  52  88 N13G20    30.08R
LLOYDMINSTER   CLOUDY    54  50  87 NE7       30.12
PRINCE ALBERT  PTSUNNY   61  55  82 N9        30.01
REGINA         PTSUNNY   61  55  82 N15       29.96R
YORKTON        CLOUDY    61  57  88 N13G21    29.91R


USA.gov is the U.S. government's official web portal to all federal, state and local government web resources and services.